"Pseudo-MPEC" for P110yz9

Created 2020 May 26 12:07:23 UT using Find_Orb

Click here for an explanation of pseudo-MPECs

 
 Astrometry: 
     P110yz9  C2020 05 19;7L[81GE#B=r9^``e=0^wM_(Dlc]@$NF:fX;fAstrometry5]]-7F51
     P110yz9  C2020 05 19vJu]d`redacted;TtyclickR^ZF+where]K1qpR)1?H!L_RPZi;tF51
     P110yz9  C2020 05 19CisOkXd7caN4=:_gforlixd.?Z_qes:n8oexplanationgg;E+,bF51

Station data:
(F51) Pan-STARRS 1, Haleakala  (N20.707235 W156.255910)  US/Hawaii.
   Observers N. Primak, A. Schultz, S. Watters, J. Thiel, T. Goggia. Measurer
   PS1 Science Consortium. 1.8-m Ritchey-Chrétien + CCD.

Orbital elements:  P110yz9
   Perihelion 2019 Dec 8.248917 +/- 184 TT =  5:58:26 (JD 2458825.748917)
Epoch 2020 May 19.0 TT = JDT 2458988.5   Earth MOID: 0.2520   AutoNEOCP
M 112.44765613 +/- 80               (J2000 ecliptic)
n   0.69091801 +/- 0.326            Peri.   15.06589 +/- 80
a   1.26721907 +/- 0.399            Node   110.01153 +/- 39
e   0.0257436 +/- 0.281             Incl.   11.95204 +/- 25
P   1.43/521.04d           H 23.1   G  0.15   U 12.0  SR
q 1.23459623 +/- 0.733    Q 1.29984192 +/- 35.2
From 3 observations 2020 May 19 (39.3 min); mean residual 0".04
Residuals in arcseconds: 
200519 F51  .04-  .02-    200519 F51  .07+  .04+    200519 F51  .04-  .02-    

Ephemerides (geocentric):
Date (UTC) HH   RA              Dec         delta   r     elong  mag " sig PA
---- -- -- --  -------------   -----------  ------ ------ -----  --- ---- ---
2020 05 26 12  16 46 44.299   +14 04 05.13  .31723 1.2830 143.8 22.4  33d 169
2020 05 26 13  16 46 39.939   +14 03 22.42  .31719 1.2830 143.8 22.4  33d 169
2020 05 26 14  16 46 35.577   +14 02 39.59  .31715 1.2830 143.9 22.4  33d 169
2020 05 26 15  16 46 31.213   +14 01 56.65  .31710 1.2830 143.9 22.4  33d 169
2020 05 26 16  16 46 26.847   +14 01 13.60  .31706 1.2831 143.9 22.4  33d 169
2020 05 26 17  16 46 22.478   +14 00 30.44  .31702 1.2831 143.9 22.4  33d 169
2020 05 26 18  16 46 18.108   +13 59 47.16  .31697 1.2831 143.9 22.4  33d 169
2020 05 26 19  16 46 13.735   +13 59 03.78  .31693 1.2831 143.9 22.4  33d 169
2020 05 26 20  16 46 09.361   +13 58 20.27  .31689 1.2831 144.0 22.4  33d 169
2020 05 26 21  16 46 04.984   +13 57 36.66  .31685 1.2831 144.0 22.4  33d 169
2020 05 26 22  16 46 00.605   +13 56 52.93  .31680 1.2831 144.0 22.4  33d 169
2020 05 26 23  16 45 56.224   +13 56 09.10  .31676 1.2832 144.0 22.4  33d 169
2020 05 27 00  16 45 51.842   +13 55 25.14  .31672 1.2832 144.0 22.4  33d 169
2020 05 27 01  16 45 47.457   +13 54 41.08  .31668 1.2832 144.1 22.4  33d 169
2020 05 27 02  16 45 43.070   +13 53 56.90  .31664 1.2832 144.1 22.4  33d 169
2020 05 27 03  16 45 38.682   +13 53 12.61  .31659 1.2832 144.1 22.4  33d 169
2020 05 27 04  16 45 34.291   +13 52 28.21  .31655 1.2832 144.1 22.4  33d 169
2020 05 27 05  16 45 29.899   +13 51 43.70  .31651 1.2832 144.1 22.4  33d 169
2020 05 27 06  16 45 25.504   +13 50 59.07  .31647 1.2832 144.1 22.4  33d 169
2020 05 27 07  16 45 21.108   +13 50 14.33  .31643 1.2833 144.2 22.4  33d 169
2020 05 27 08  16 45 16.710   +13 49 29.48  .31639 1.2833 144.2 22.4  33d 169
2020 05 27 09  16 45 12.310   +13 48 44.51  .31635 1.2833 144.2 22.4  33d 169
2020 05 27 10  16 45 07.908   +13 47 59.44  .31631 1.2833 144.2 22.4  33d 169
2020 05 27 11  16 45 03.505   +13 47 14.25  .31627 1.2833 144.2 22.4  33d 169
2020 05 27 12  16 44 59.099   +13 46 28.95  .31623 1.2833 144.2 22.4  33d 169
2020 05 27 13  16 44 54.692   +13 45 43.53  .31619 1.2833 144.3 22.4  33d 169
2020 05 27 14  16 44 50.283   +13 44 58.01  .31615 1.2834 144.3 22.4  33d 169
2020 05 27 15  16 44 45.873   +13 44 12.37  .31611 1.2834 144.3 22.4  33d 169
2020 05 27 16  16 44 41.460   +13 43 26.62  .31607 1.2834 144.3 22.4  33d 169
2020 05 27 17  16 44 37.046   +13 42 40.75  .31603 1.2834 144.3 22.4  33d 170
2020 05 27 18  16 44 32.630   +13 41 54.78  .31600 1.2834 144.3 22.4  33d 170
2020 05 27 19  16 44 28.213   +13 41 08.69  .31596 1.2834 144.4 22.4  33d 170
2020 05 27 20  16 44 23.794   +13 40 22.49  .31592 1.2834 144.4 22.4  33d 170
2020 05 27 21  16 44 19.373   +13 39 36.18  .31588 1.2835 144.4 22.4  33d 170
2020 05 27 22  16 44 14.951   +13 38 49.76  .31584 1.2835 144.4 22.4  33d 170
2020 05 27 23  16 44 10.527   +13 38 03.22  .31580 1.2835 144.4 22.4  33d 170
2020 05 28 00  16 44 06.101   +13 37 16.57  .31577 1.2835 144.4 22.4  33d 170
2020 05 28 01  16 44 01.674   +13 36 29.81  .31573 1.2835 144.5 22.4  33d 170
2020 05 28 02  16 43 57.246   +13 35 42.94  .31569 1.2835 144.5 22.4  33d 170
2020 05 28 03  16 43 52.815   +13 34 55.96  .31565 1.2835 144.5 22.4  33d 170
2020 05 28 04  16 43 48.384   +13 34 08.86  .31562 1.2836 144.5 22.4  33d 170
2020 05 28 05  16 43 43.951   +13 33 21.65  .31558 1.2836 144.5 22.4  33d 170
2020 05 28 06  16 43 39.516   +13 32 34.33  .31554 1.2836 144.5 22.4  33d 170
2020 05 28 07  16 43 35.080   +13 31 46.90  .31551 1.2836 144.5 22.4  33d 170
2020 05 28 08  16 43 30.642   +13 30 59.36  .31547 1.2836 144.6 22.4  33d 170
2020 05 28 09  16 43 26.203   +13 30 11.70  .31544 1.2836 144.6 22.4  33d 170
2020 05 28 10  16 43 21.763   +13 29 23.94  .31540 1.2836 144.6 22.4  33d 170
2020 05 28 11  16 43 17.321   +13 28 36.06  .31536 1.2837 144.6 22.4  33d 170